This is the latest recevied weather packets stored in our database for station/object W6ORV. If no packets are shown the sender has not sent any weather packets the latest 10 day(s).
| Time | Temp. | Humidity | Pressure | Rain* | Wind** | Luminosity | Snow |
|---|---|---|---|---|---|---|---|
| 1777181577 | 8.89° C | 99% | 4296.5 hPa | 0 mm | - | 0 W/m² | - |
| 1777181277 | 8.89° C | 99% | 4296.4 hPa | 1.78 mm | - | 0 W/m² | - |
| 1777180973 | 9.44° C | 99% | 4296.7 hPa | 3.56 mm | - | 0 W/m² | - |
| 1777180669 | 9.44° C | 98% | 4296.6 hPa | 3.05 mm | - | 0 W/m² | - |
| 1777180365 | 9.44° C | 98% | 4296.6 hPa | 1.27 mm | - | 0 W/m² | - |
| 1777180063 | 9.44° C | 98% | 4296.5 hPa | 0 mm | - | 0 W/m² | - |
| 1777179758 | 9.44° C | 98% | 4296.6 hPa | 1.78 mm | - | 0 W/m² | - |
| 1777179454 | 9.44° C | 98% | 4296.4 hPa | 1.78 mm | - | 0 W/m² | - |
| 1777179152 | 9.44° C | 98% | 4296.6 hPa | 0 mm | - | 0 W/m² | - |
| 1777178849 | 9.44° C | 98% | 4296.6 hPa | 0 mm | - | 0 W/m² | - |
| 1777178243 | 9.44° C | 98% | 4296.4 hPa | 0 mm | - | 0 W/m² | - |
| 1777177941 | 9.44° C | 98% | 4296.4 hPa | 0 mm | - | 0 W/m² | - |
| 1777177635 | 9.44° C | 97% | 4296.3 hPa | 0 mm | - | 0 W/m² | - |
| 1777177331 | 9.44° C | 97% | 4296.5 hPa | 0 mm | - | 0 W/m² | - |
| 1777177028 | 9.44° C | 97% | 4296.5 hPa | 0 mm | - | 0 W/m² | - |
| 1777176724 | 9.44° C | 97% | 4296.4 hPa | 0 mm | - | 0 W/m² | - |
| 1777176422 | 9.44° C | 97% | 4296.2 hPa | 0 mm | - | 0 W/m² | - |
| 1777176118 | 9.44° C | 98% | 4296.2 hPa | 0 mm | - | 0 W/m² | - |
| 1777175817 | 9.44° C | 97% | 4296.2 hPa | 0 mm | - | 0 W/m² | - |
| 1777175516 | 9.44° C | 97% | 4296.2 hPa | 0 mm | - | 0 W/m² | - |
| 1777175210 | 9.44° C | 97% | 4296.2 hPa | 0 mm | - | 0 W/m² | - |
| 1777174907 | 9.44° C | 97% | 4296.1 hPa | 0 mm | - | 0 W/m² | - |
| 1777174603 | 9.44° C | 98% | 4296.1 hPa | 0 mm | - | 0 W/m² | - |
| 1777174298 | 9.44° C | 97% | 4296 hPa | 0 mm | - | 0 W/m² | - |
| 1777173993 | 9.44° C | 97% | 4296 hPa | 0 mm | - | 0 W/m² | - |
* Rain latest hour (hover to see other rain measurements)
** Current wind speed in m/s (hover to see current wind gust speed)